This is the latest recevied weather packets stored in our database for station/object N5ZP. If no packets are shown the sender has not sent any weather packets the latest 1 day(s).
| Time | Temp. | Humidity | Pressure | Rain* | Wind** | Luminosity | Snow |
|---|---|---|---|---|---|---|---|
| 1778002716 | 30.56° C | 59% | 1001.8 hPa | 0 mm | 1.79 m/s, 216° | 572 W/m² | - |
| 1778002413 | 30.56° C | 58% | 1002 hPa | 0 mm | 2.68 m/s, 238° | 676 W/m² | - |
| 1778002110 | 30.56° C | 57% | 1001.9 hPa | 0 mm | 2.68 m/s, 212° | 400 W/m² | - |
| 1778001808 | 30.56° C | 57% | 1002.1 hPa | 0 mm | 2.24 m/s, 214° | 410 W/m² | - |
| 1778001502 | 30.56° C | 56% | 1002.1 hPa | 0 mm | 1.79 m/s, 194° | 689 W/m² | - |
| 1778001199 | 31.11° C | 57% | 1001.8 hPa | 0 mm | 1.79 m/s, 183° | 579 W/m² | - |
| 1778000895 | 30.56° C | 60% | 1001.8 hPa | 0 mm | 0.45 m/s, 207° | 585 W/m² | - |
| 1778000593 | 30.56° C | 60% | 1002 hPa | 0 mm | 1.34 m/s, 221° | 564 W/m² | - |
| 1778000288 | 30° C | 61% | 1002 hPa | 0 mm | 1.34 m/s, 202° | 564 W/m² | - |
| 1777999984 | 30° C | 60% | 1001.9 hPa | 0 mm | 1.79 m/s, 195° | 466 W/m² | - |
| 1777999679 | 30° C | 62% | 1002.2 hPa | 0 mm | 0.89 m/s, 189° | 448 W/m² | - |
| 1777999377 | 29.44° C | 63% | 1002.1 hPa | 0 mm | 1.34 m/s, 208° | 546 W/m² | - |
| 1777999075 | 28.89° C | 65% | 1002.1 hPa | 0 mm | 2.24 m/s, 201° | 402 W/m² | - |
| 1777998773 | 28.33° C | 65% | 1001.9 hPa | 0 mm | 1.79 m/s, 207° | 521 W/m² | - |
| 1777998470 | 27.78° C | 68% | 1002.1 hPa | 0 mm | 1.79 m/s, 203° | 470 W/m² | - |
| 1777998167 | 27.78° C | 67% | 1002.1 hPa | 0 mm | 1.34 m/s, 209° | 338 W/m² | - |
| 1777997864 | 27.78° C | 67% | 1002.2 hPa | 0 mm | 1.34 m/s, 215° | 361 W/m² | - |
| 1777997562 | 27.78° C | 68% | 1001.9 hPa | 0 mm | 1.34 m/s, 194° | 337 W/m² | - |
| 1777997259 | 27.78° C | 66% | 1002 hPa | 0 mm | 1.34 m/s, 200° | 293 W/m² | - |
| 1777996957 | 27.78° C | 66% | 1001.8 hPa | 0 mm | 0.89 m/s, 229° | 314 W/m² | - |
| 1777996653 | 27.78° C | 68% | 1001.6 hPa | 0 mm | 1.34 m/s, 183° | 473 W/m² | - |
| 1777996349 | 27.78° C | 67% | 1001.9 hPa | 0 mm | 1.34 m/s, 192° | 355 W/m² | - |
| 1777996045 | 27.78° C | 67% | 1001.8 hPa | 0 mm | 1.79 m/s, 205° | 320 W/m² | - |
| 1777995742 | 26.11° C | 72% | 1001.8 hPa | 0 mm | 1.34 m/s, 203° | 499 W/m² | - |
| 1777995438 | 25.56° C | 72% | 1001.6 hPa | 0 mm | 1.34 m/s, 221° | 332 W/m² | - |
* Rain latest hour (hover to see other rain measurements)
** Current wind speed in m/s (hover to see current wind gust speed)